Regional Weather Roundup
Issued by NWS State College, PA

Home | Current Version | Previous Version | Text Only | Print | Product List | Glossary Off
Versions: 1 2 3 4 5 6 7 8 9 10 11 12 13 14 15 16 17 18 19 20 21 22 23 24 25 26 27 28 29 30 31 32 33 34 35 36 37 38 39 40 41 42 43 44 45 46 47 48 49 50

000
ASUS41 KCTP 280903
RWRCTP

REGIONAL WEATHER ROUNDUP
NATIONAL WEATHER SERVICE STATE COLLEGE PA
500 AM EDT TUE MAR 28 2017

Note: "fair" indicates few or no clouds below 12,000 feet with no
significant weather and/or obstructions to visibility.

* = STATION THAT DOES NOT REPORT PRECIPITATION /E.G. RAIN...SNOW...ETC/
    THUNDER OR FOG.

PAZ002>004-007>009-013>016-020>023-029>032-281000-
WESTERN PENNSYLVANIA

CITY           SKY/WX    TMP DP  RH WIND       PRES   REMARKS
ERIE           CLOUDY    47  45  93 CALM      29.86S
MEADVILLE      CLOUDY    50  46  86 CALM      29.85F
FRANKLIN*      CLOUDY    46  45  93 CALM      29.87R
NEW CASTLE     CLOUDY    50  49  96 E5        29.85F
BEAVER COUNTY  NOT AVBL
BUTLER*        CLOUDY    52  48  87 CALM      29.85S
PITTSBURGH INT LGT RAIN  56  52  86 CALM      29.84R
PITTSBURGH     LGT RAIN  58  51  78 S6        29.84R
INDIANA*       MOCLDY    55  52  88 CALM      29.87S
LATROBE        CLOUDY    57  55  94 SW6       29.86R
WASHINGTON CO* CLOUDY    55  52  88 SW5       29.87R
$$

PAZ004>006-010>012-017>019-024>028-033>037-041-042-045-046-049>053-281000-
CENTRAL PENNSYLVANIA

CITY           SKY/WX    TMP DP  RH WIND       PRES   REMARKS
BRADFORD       CLOUDY    45  45 100 CALM      29.86F
DUBOIS         CLOUDY    50  46  86 NW6       29.85S
CLEARFIELD       N/A    N/A N/A N/A MISG      29.86S
JOHNSTOWN      CLOUDY    55  50  83 SW6       29.84F
ALTOONA        CLOUDY    53  50  89 CALM      29.85F
STATE COLLEGE  MOCLDY    48  47  97 CALM      29.86S FOG
WILLIAMSPORT   CLOUDY    44  44 100 CALM      29.86F
SELINSGROVE    CLOUDY    47  46  97 CALM      29.87F FOG
FT INDIANTOWN  CLOUDY    50  50 100 CALM      29.88S FOG
CAPITAL CITY   CLOUDY    52  48  86 E5        29.87F FOG
HARRISBURG     CLOUDY    51  50  96 CALM      29.87S FOG
YORK           CLOUDY    47  47 100 CALM      29.86F FOG
$$

PAZ038>040-043-044-047-048-054-055-060>062-067>071-281000-
EASTERN PENNSYLVANIA

CITY           SKY/WX    TMP DP  RH WIND       PRES   REMARKS
SCRANTON       CLOUDY    48  47  96 CALM      29.89R FOG
MOUNT POCONO   FOG       45  45 100 E3        29.89F VSB 1/2
ALLENTOWN      CLOUDY    49  46  90 NE6       29.91S FOG
QUAKERTOWN*    CLOUDY    48  48 100 E5        29.91F
READING        CLOUDY    50  50 100 CALM      29.89S
LANCASTER      CLOUDY    49  49 100 E6        29.88S FOG
COATESVILLE    FOG       50  50 100 CALM      29.90S VSB<1/4
POTTSTOWN      CLOUDY    49  48  97 NE5       29.91S FOG
BLUE BELL      CLOUDY    48  48 100 E6        29.89F VSB 3/4
DOYLESTOWN     CLOUDY    47  47 100 VRB3      29.90F FOG
WILLOW GROVE   NOT AVBL
NORTH PHILA    CLOUDY    51  50  96 NE7       29.92S FOG
PHILADELPHIA   CLOUDY    51  50  96 NE9       29.90S FOG
$$




USA.gov is the U.S. government's official web portal to all federal, state and local government web resources and services.